This demonstration page uses our WeatherBlox Daily Observations layout. Learn more.

Left ArrowRight Arrow

Hourly Observations for September 29, 2022

Temp ( °F °C ) Dew Point ( °F °C ) Humidity (%) Winds ( mph kmh ) Pressure ( in mb ) Visibility ( mi km ) Precip ( " mm )
12:54 am 00:54 Clear 55 12.8 35 1.7 47 47 SSE 10 17 30.37 1028 10 16 0.00 0.00
1:54 am 01:54 Clear 54 12.2 36 2.2 50 50 SSE 9 15 30.35 1028 10 16 0.00 0.00
2:54 am 02:54 Clear 52 11.1 36 2.2 54 54 S 9 15 30.36 1028 10 16 0.00 0.00
3:54 am 03:54 Clear 50 10 36 2.2 58 58 SSE 10 17 30.35 1028 10 16 0.00 0.00
4:54 am 04:54 Clear 46 7.8 36 2.2 68 68 S 9 15 30.34 1028 10 16 0.00 0.00
5:54 am 05:54 Clear 44 6.7 36 2.2 73 73 S 8 13 30.35 1028 10 16 0.00 0.00
6:54 am 06:54 Clear 42 5.6 35 1.7 76 76 S 7 11 30.35 1028 10 16 0.00 0.00
7:54 am 07:54 Sunny 46 7.8 38 3.3 73 73 S 6 9 30.35 1028 10 16 0.00 0.00
8:54 am 08:54 Sunny 52 11.1 39 3.9 61 61 S 10 17 30.35 1028 10 16 0.00 0.00
9:54 am 09:54 Sunny 58 14.4 40 4.4 51 51 SSE 14 22 30.33 1027 10 16 0.00 0.00
10:54 am 10:54 Sunny 65 18.3 40 4.4 40 40 SSE 14 22 30.32 1027 10 16 0.00 0.00
11:54 am 11:54 Sunny 70 21.1 41 5 35 35 SSE 16 26 30.29 1026 10 16 0.00 0.00
12:54 pm 12:54 Sunny 74 23.3 42 5.6 32 32 SE 16 26 30.25 1024 10 16 0.00 0.00
1:54 pm 13:54 Sunny 77 25 44 6.7 31 31 SE 17 28 30.22 1023 10 16 0.00 0.00
2:54 pm 14:54 Sunny 78 25.6 45 7.2 31 31 SE 16 26 30.18 1022 10 16 0.00 0.00
3:54 pm 15:54 Sunny 78 25.6 45 7.2 31 31 SE 17 28 30.16 1021 10 16 0.00 0.00
4:54 pm 16:54 Sunny 78 25.6 45 7.2 31 31 SSE 15 24 30.14 1021 10 16 0.01 0.13
5:54 pm 17:54 Sunny 76 24.4 45 7.2 33 33 SSE 17 28 30.14 1021 10 16 0.01 0.13
6:54 pm 18:54 Sunny 73 22.8 45 7.2 37 37 SE 13 20 30.12 1020 10 16 0.01 0.13
7:54 pm 19:54 Clear 70 21.1 45 7.2 41 41 SSE 14 22 30.12 1020 10 16 0.01 0.13
8:54 pm 20:54 Clear 68 20 45 7.2 43 43 SSE 12 19 30.13 1020 10 16 0.00 0.00
9:54 pm 21:54 Clear 65 18.3 42 5.6 43 43 SE 14 22 30.14 1021 10 16 0.00 0.00
10:54 pm 22:54 Clear 64 17.8 39 3.9 40 40 SSE 14 22 30.13 1020 10 16 0.00 0.00
11:54 pm 23:54 Clear 61 16.1 39 3.9 44 44 SSE 13 20 30.14 1021 10 16 0.00 0.00

Powered by AerisWeather